ECMWFFLT2_250_rhum_150.txt.gz
RH
70 70 69 70 68 62 53 45 39 35 35 35 34 32 31 27 22 22 21 22 20 17 15 13 15 12 21 46 65 86 100 102 103 104 103 102 99 94 84 68 52 37 29 24 23 27 26 23 25 23 23 22
72 72 72 71 65 55 46 40 37 36 37 36 32 27 24 22 20 20 21 21 19 16 15 14 15 14 23 55 89 102 101 102 102 100 101 102 102 104 100 87 70 50 34 27 24 26 30 28 27 24 28 36
71 72 71 67 58 48 41 38 37 36 34 31 25 21 20 20 18 18 21 20 18 17 15 17 16 17 30 51 78 99 101 99 101 100 100 101 99 97 96 93 91 73 48 38 33 32 34 31 28 25 27 36
65 66 63 59 50 42 39 38 36 31 26 23 20 20 20 19 16 17 19 19 19 17 16 18 19 16 31 51 65 88 101 99 100 102 99 101 100 92 86 84 81 69 57 52 44 37 37 33 28 25 26 32
55 55 54 50 44 38 37 36 30 24 21 20 21 23 22 20 16 15 17 20 19 17 19 19 20 17 24 44 56 70 89 96 93 92 96 100 94 85 77 69 63 58 59 62 57 46 39 37 32 27 27 30
47 47 46 42 37 34 33 32 29 25 24 24 26 27 25 21 17 16 16 19 19 18 23 21 19 20 21 29 41 52 65 76 79 78 87 96 95 90 77 62 55 56 60 62 62 57 48 42 39 34 33 35
42 40 37 35 34 35 35 37 38 36 33 31 31 30 26 21 17 18 18 18 19 19 24 22 17 20 25 27 35 51 61 63 65 68 78 89 97 96 82 68 63 61 64 64 63 60 53 50 48 43 40 41
34 34 35 37 40 43 47 50 52 48 42 36 32 30 26 22 19 19 21 21 21 22 23 22 18 19 27 36 43 56 71 73 70 71 77 84 92 92 84 79 76 72 71 74 75 69 59 55 55 53 50 49
34 39 44 49 52 55 58 58 56 50 43 36 32 29 26 24 21 19 21 26 28 27 26 22 19 20 24 36 54 70 80 83 82 85 89 86 81 80 81 83 85 85 82 82 84 80 69 62 58 59 58 58
44 47 52 55 56 54 54 52 48 43 39 35 32 29 28 26 24 21 22 27 31 31 30 25 19 21 23 26 43 75 95 91 88 92 94 96 91 84 81 80 83 86 88 87 89 86 80 73 65 64 65 64
45 44 45 45 45 43 42 41 39 36 34 33 32 31 31 30 29 26 24 25 28 29 30 29 22 18 23 25 26 56 97 103 97 96 93 96 103 102 99 95 92 91 94 96 98 97 92 87 76 70 70 70
38 36 35 34 35 35 34 35 35 34 33 33 34 35 36 35 32 29 26 24 23 25 26 28 27 21 19 26 24 37 79 103 103 103 100 98 102 106 108 108 107 105 104 104 106 105 101 99 91 83 78 73
35 33 32 31 31 32 33 35 36 38 38 38 36 36 37 35 31 27 25 22 19 20 23 25 27 26 21 23 26 30 56 87 100 104 104 105 107 106 105 104 105 108 109 109 109 107 103 101 100 98 95 87
35 33 33 33 33 35 36 39 40 41 41 40 37 33 31 29 26 23 21 19 18 17 19 24 27 28 24 22 25 26 36 60 85 100 103 103 102 100 102 101 100 102 105 108 106 106 106 101 99 101 101 101
37 36 36 36 35 36 37 38 38 38 36 33 30 26 23 22 21 19 18 17 16 16 15 19 25 29 28 24 24 25 26 37 58 81 94 100 101 101 104 105 102 100 101 103 102 103 104 101 100 100 100 101
35 35 36 35 33 32 31 30 29 27 26 25 23 21 19 17 17 17 16 16 15 14 14 15 21 27 31 27 24 25 26 27 34 49 67 85 100 104 104 104 105 102 100 100 102 103 101 101 102 100 100 101
29 29 29 28 27 25 23 21 19 18 17 18 18 18 17 16 16 16 15 16 15 13 13 13 16 22 30 31 26 26 28 28 27 31 40 58 81 97 102 103 104 103 101 98 99 103 102 102 102 101 102 101
25 24 23 22 21 20 19 18 16 15 14 14 15 15 16 16 15 15 15 15 15 15 14 13 13 16 24 31 29 28 30 30 28 29 31 38 55 77 94 101 102 102 102 102 99 98 101 104 101 100 102 100
20 20 20 19 19 18 17 17 16 15 14 13 13 14 14 16 16 15 15 15 15 15 15 14 13 13 17 25 30 30 31 32 30 30 31 32 38 55 76 90 95 95 96 100 102 97 96 101 102 103 101 99
16 16 16 16 16 17 16 16 16 15 14 14 13 13 13 14 15 16 15 15 15 15 15 14 14 14 14 18 26 30 31 33 34 33 32 34 37 44 58 72 80 84 84 87 95 99 96 93 94 101 104 102
13 13 13 14 14 15 15 14 15 15 15 15 14 13 13 13 14 15 16 15 15 15 15 15 14 14 14 14 19 27 30 32 36 38 36 36 38 41 49 60 68 73 79 81 84 92 97 94 87 87 94 103
12 12 12 12 12 12 13 13 13 13 14 14 15 14 14 13 13 14 15 16 16 15 14 15 14 14 14 14 16 21 28 31 35 40 40 38 37 39 46 56 63 69 76 80 80 83 89 92 90 84 80 87
13 13 13 12 12 12 13 13 13 13 13 13 14 14 14 14 14 13 14 16 16 16 15 14 14 14 13 15 16 17 23 29 33 38 42 43 41 39 42 50 58 65 71 76 80 84 86 85 87 88 82 79
13 13 13 13 13 13 13 13 14 14 14 14 14 14 15 15 15 14 14 15 16 17 17 16 15 14 13 14 15 16 18 24 30 36 41 45 46 43 41 44 50 57 64 73 78 80 83 83 80 82 88 88
12 12 12 12 13 13 13 13 14 15 15 15 15 14 15 15 16 16 16 15 15 17 18 19 17 16 14 13 14 15 17 19 25 32 38 44 49 49 46 44 46 50 55 66 80 81 79 82 80 76 83 93
11 11 11 11 11 11 11 12 13 14 15 16 17 17 16 16 16 17 18 18 17 17 18 19 20 19 17 15 14 14 16 18 20 26 33 41 47 51 52 49 47 48 49 59 79 86 81 81 83 77 77 87
9 9 9 9 9 9 9 9 10 10 11 13 15 16 17 18 17 18 19 20 20 20 19 19 20 21 20 19 17 14 14 16 20 23 26 33 43 50 53 54 53 50 48 51 64 81 87 84 85 87 82 83
8 8 8 8 8 8 8 8 8 8 9 9 10 12 14 16 17 17 17 18 19 21 20 19 19 19 21 21 20 18 15 14 17 23 25 25 34 46 52 53 55 56 53 49 50 63 81 87 91 96 93 91
7 7 7 8 7 7 8 8 9 9 9 9 9 9 10 11 13 14 15 16 16 18 19 19 18 17 18 19 21 20 19 16 14 19 26 26 26 36 49 53 53 55 57 56 51 49 59 76 93 99 97 99
7 7 7 7 8 8 7 7 8 9 9 10 10 10 10 10 10 12 13 14 15 15 17 18 18 17 16 16 18 20 21 20 16 15 22 27 26 27 37 48 53 54 54 57 59 54 49 55 72 89 98 103
6 6 6 6 6 7 7 7 7 8 8 9 9 10 10 11 11 11 12 13 14 14 15 16 18 18 18 16 15 17 19 20 19 18 19 22 26 28 29 36 48 53 53 53 58 59 54 49 51 65 84 97

ECMWFFLT2_250_rhum_156.txt.gz
RH
82 83 85 85 84 83 82 83 85 86 84 82 80 79 76 73 69 60 55 54 51 48 46 47 47 46 45 43 42 39 36 34 30 28 27 24 26 29 28 26 24 24 23 28 34 32 32 38 49 68 95 90
79 75 73 70 67 64 64 65 67 69 71 72 72 70 66 60 56 53 53 53 51 49 46 46 45 44 42 40 38 36 33 30 28 26 23 20 23 25 25 26 23 21 17 18 23 25 37 47 48 65 98 100
59 55 55 55 54 54 54 56 58 59 61 62 61 58 55 52 50 50 50 48 47 45 43 42 42 40 38 36 34 33 30 27 24 21 19 19 20 21 22 23 21 18 16 17 19 18 28 48 60 67 89 102
47 46 47 48 47 47 47 49 50 52 53 53 52 50 48 47 45 44 42 42 40 38 37 37 36 35 33 31 30 28 25 21 19 17 17 18 18 18 19 19 19 15 14 15 15 17 21 39 67 76 90 105
47 47 47 46 45 44 43 42 43 44 45 45 45 44 43 41 39 38 37 37 35 33 32 31 30 29 27 25 24 21 18 16 15 16 15 15 16 16 16 16 16 14 14 17 20 26 28 40 68 84 96 105
52 51 50 49 47 46 45 43 43 42 42 43 43 42 40 37 34 33 33 32 30 28 26 24 23 21 19 17 16 15 14 14 14 13 13 13 13 13 13 14 16 16 16 21 28 31 34 48 73 88 97 103
59 56 53 51 50 49 50 49 48 47 44 42 39 36 31 27 26 25 25 23 21 20 18 16 16 15 15 14 13 14 14 13 13 12 11 11 11 11 11 16 22 24 22 24 29 33 35 47 76 97 100 102
66 64 61 59 58 57 58 56 53 48 41 35 29 25 21 19 19 19 18 16 15 15 15 14 14 14 15 15 14 14 15 15 15 13 12 12 11 12 12 18 29 34 33 29 30 38 42 42 68 100 102 100
70 70 69 69 67 63 58 50 42 34 28 24 21 20 19 18 18 18 18 17 16 15 16 17 17 18 18 20 20 19 20 21 21 17 16 15 14 14 13 19 32 42 41 36 35 39 47 45 60 96 103 97
71 68 65 61 56 48 40 32 26 23 21 20 20 20 20 21 22 22 24 24 25 23 21 22 23 24 23 23 23 23 23 22 23 20 17 16 15 14 13 17 29 45 46 41 48 51 50 46 50 80 101 100
62 56 50 44 38 32 28 25 25 25 25 27 27 28 27 27 27 27 27 28 30 30 27 24 23 24 23 21 20 19 20 20 20 19 16 14 14 13 12 14 21 39 49 43 49 59 59 55 50 61 85 99
50 45 40 36 34 33 33 33 33 33 31 31 30 29 28 27 26 24 23 23 24 25 25 24 21 19 19 19 17 15 17 19 19 17 16 15 14 13 12 13 15 28 46 48 43 50 61 70 67 62 73 88
48 46 44 43 43 42 41 39 35 32 28 25 23 21 21 20 19 19 19 18 18 19 20 22 21 19 17 17 17 17 16 17 19 19 17 16 16 15 13 12 15 20 36 48 45 45 56 70 77 75 82 90
53 51 50 47 44 41 36 33 29 26 24 22 21 19 18 17 17 17 17 17 17 18 18 19 21 21 20 17 17 17 18 17 18 19 18 18 16 16 15 13 14 17 28 42 46 46 51 63 75 80 90 101
49 45 41 37 33 30 28 26 25 25 24 23 23 22 20 18 18 17 17 17 18 18 18 19 20 21 22 21 18 17 18 19 18 19 20 20 18 16 16 15 14 15 23 35 44 47 49 56 73 82 88 102
36 32 29 27 25 24 24 23 23 23 23 23 23 23 22 21 19 18 17 16 16 17 17 18 19 20 22 23 22 20 19 19 20 20 21 22 22 19 17 17 15 14 18 30 40 46 48 52 68 83 88 98
29 28 27 26 24 23 22 22 21 21 21 21 21 20 20 19 17 15 14 14 13 13 14 14 16 17 19 21 22 23 21 20 20 21 21 22 23 21 20 19 17 16 16 25 37 43 47 50 64 84 91 97
29 28 27 26 25 23 22 22 21 21 20 19 18 17 16 14 13 12 11 11 11 10 10 10 11 12 13 15 18 21 21 20 18 19 20 21 22 21 21 21 19 18 17 22 33 41 46 49 57 79 94 97
29 27 26 24 23 22 20 20 19 19 18 17 17 15 14 13 11 11 10 10 10 9 9 9 9 10 10 11 13 15 17 19 18 17 18 19 20 20 19 20 19 19 18 18 29 39 44 48 52 66 87 97
26 24 22 21 20 19 18 17 17 16 16 15 15 15 14 13 12 12 11 10 10 9 9 9 9 9 9 9 10 11 13 15 17 16 16 16 18 19 18 18 17 18 18 16 22 35 42 45 48 56 72 90
21 20 19 18 17 16 16 16 15 14 14 14 14 14 13 13 13 13 12 11 11 10 9 9 8 8 8 8 8 9 10 12 14 15 15 14 15 17 17 17 17 17 17 16 15 26 38 42 45 50 57 72
16 15 14 14 13 13 12 12 12 12 12 11 11 11 11 11 11 11 11 11 11 10 10 9 8 8 7 8 7 7 9 9 11 13 14 14 13 14 15 15 16 16 16 16 14 16 28 38 40 45 50 56
11 11 10 10 9 9 9 8 9 9 9 9 9 9 9 9 9 9 10 9 10 10 10 10 9 9 8 7 7 7 7 8 9 10 12 14 14 13 14 14 14 15 15 15 15 13 18 29 35 37 44 48
8 8 7 8 7 7 7 7 7 7 7 8 8 8 8 8 8 8 9 9 9 9 9 10 9 9 9 8 8 7 7 6 7 8 9 11 13 13 14 14 14 15 15 14 14 14 13 18 28 31 35 42
8 8 7 7 7 7 7 7 6 6 6 6 6 7 6 6 7 6 7 7 7 8 8 8 9 9 9 9 9 8 7 7 6 7 8 8 10 12 13 14 14 14 14 14 13 14 14 13 19 25 28 32
7 7 7 6 6 6 6 6 6 5 5 5 5 5 6 5 5 5 5 6 6 6 6 6 7 7 7 8 8 8 7 7 7 6 7 7 8 10 12 13 14 14 14 14 13 12 14 14 14 19 23 25
6 6 6 6 6 5 6 5 5 6 5 5 5 5 6 5 6 6 5 5 5 6 6 5 6 5 6 6 6 7 7 7 7 6 6 7 7 8 10 12 13 14 14 14 14 13 13 15 13 14 19 22
6 6 6 6 6 5 5 5 5 5 5 5 5 5 5 5 5 6 5 5 5 5 6 6 6 5 5 6 5 5 6 6 6 6 6 6 6 7 8 10 11 12 13 13 14 14 13 13 14 14 16 20
7 6 6 6 6 6 5 5 5 5 5 5 5 4 5 5 5 5 5 5 5 5 5 5 6 6 5 5 5 5 5 5 5 5 5 5 5 6 6 8 10 11 12 13 13 14 13 12 14 15 14 17
7 6 6 5 6 5 5 5 5 5 5 5 5 5 5 5 5 5 5 5 5 5 5 5 5 5 5 5 5 5 5 5 5 5 5 5 5 5 5 6 8 10 11 12 13 13 13 12 12 14 15 15
6 6 6 6 6 6 5 5 5 5 5 5 5 5 5 5 4 5 5 5 5 5 5 5 5 5 5 5 5 5 5 5 5 5 5 5 5 4 5 5 6 7 9 11 13 14 13 13 12 13 15 15

ECMWFFLT2_250_rhum_162.txt.gz
RH
83 79 77 76 74 73 71 71 69 68 66 66 69 68 68 70 71 70 68 66 64 62 62 64 65 66 65 65 65 66 67 69 71 72 73 74 75 74 72 69 66 61 55 51 52 54 52 49 46 43 39 36
98 95 94 94 92 90 91 91 91 91 90 91 93 94 95 95 94 93 91 88 84 82 80 78 78 78 77 77 77 78 79 79 79 82 87 89 89 87 81 73 68 65 62 59 58 57 52 47 46 44 42 39
95 95 94 93 89 86 90 93 94 92 90 91 93 95 96 92 89 91 95 97 97 97 96 95 95 95 94 92 91 91 92 92 91 93 96 96 93 88 81 73 72 74 72 67 62 58 50 46 45 46 45 42
96 96 94 92 89 84 81 82 81 79 77 76 76 78 76 69 67 72 80 86 89 90 91 91 91 88 83 79 76 76 77 80 82 83 84 84 81 76 71 67 68 73 71 64 58 52 47 45 45 45 45 43
102 102 100 99 99 97 94 91 89 88 86 84 82 83 80 70 66 71 76 79 80 80 79 78 75 70 64 60 57 56 56 58 61 63 65 65 64 61 59 59 60 63 61 54 49 46 44 43 42 42 42 41
96 96 97 98 99 101 102 102 100 97 94 92 90 89 87 79 74 77 80 80 78 74 71 66 62 58 55 53 52 51 50 50 51 52 52 52 52 52 51 51 52 52 49 46 43 43 42 40 38 38 38 38
90 88 89 91 93 94 95 95 94 90 86 83 80 78 78 76 74 75 74 72 67 63 60 56 54 53 51 51 50 49 48 47 46 46 46 46 46 45 45 45 44 44 43 42 40 38 37 35 35 33 33 33
83 80 79 78 78 78 77 77 76 73 70 67 64 63 63 64 63 62 60 58 55 53 52 50 50 49 48 47 46 45 44 43 42 41 41 41 41 41 40 40 40 39 38 37 36 34 33 32 32 30 29 28
74 71 71 70 68 67 65 64 63 61 60 58 57 56 55 54 53 51 50 48 47 45 44 43 42 42 41 40 40 39 38 37 37 36 36 36 35 35 34 34 34 33 33 33 32 31 30 29 29 29 27 26
72 71 70 68 66 65 63 61 60 59 58 57 55 53 52 50 49 47 46 45 43 41 40 39 38 38 37 36 35 33 33 33 32 32 31 31 31 30 30 29 29 28 29 28 28 27 26 27 25 25 25 24
76 74 72 69 67 66 64 63 62 61 60 58 56 53 52 50 49 47 46 45 43 42 41 39 38 36 34 32 30 29 28 28 28 27 26 27 27 27 27 26 25 23 22 21 20 20 20 20 19 19 19 18
77 74 73 70 69 68 68 67 65 63 61 58 55 51 48 47 46 45 44 43 41 39 36 33 29 26 24 22 21 20 20 20 19 19 18 18 18 18 18 17 17 15 14 14 13 14 14 15 15 14 14 14
80 78 78 76 74 71 68 64 59 55 51 48 46 44 42 42 41 41 39 37 33 29 24 20 17 15 14 13 12 12 12 12 12 13 12 12 12 11 11 11 12 13 14 15 14 15 17 17 18 17 17 16
83 80 76 72 66 61 55 51 47 43 41 39 38 37 35 34 32 30 27 25 21 19 18 17 16 16 15 15 14 14 13 13 13 14 14 14 14 13 12 11 12 14 15 17 17 18 20 21 22 21 21 21
68 64 59 55 51 48 45 44 43 41 39 37 35 33 30 28 26 25 23 23 22 21 22 21 21 21 19 19 17 16 14 13 12 12 12 12 13 12 11 10 9 10 11 12 13 14 16 17 19 20 20 21
52 51 51 50 49 48 47 46 46 45 43 42 41 40 39 38 35 34 31 29 27 24 22 20 18 17 16 15 14 13 12 11 11 10 10 10 10 11 11 11 10 8 8 8 9 10 12 13 15 16 17 17
59 59 59 59 59 59 59 58 58 56 54 51 48 45 42 39 35 32 29 25 23 20 19 17 16 15 14 14 13 13 13 12 12 11 11 10 10 10 11 12 12 11 9 8 8 9 11 12 14 15 18 18
72 72 71 70 69 68 66 62 58 54 49 44 39 35 31 28 26 24 23 21 20 19 18 16 16 15 14 13 13 12 12 11 11 10 10 10 10 9 10 10 11 12 11 10 9 8 10 11 13 15 17 19
75 73 70 66 62 58 53 49 45 41 38 35 32 29 27 25 23 21 20 19 18 17 16 15 14 12 11 11 10 10 9 9 8 8 8 7 8 7 7 8 8 9 10 10 10 8 9 10 12 14 15 18
64 61 56 53 49 46 43 41 39 38 36 34 32 29 27 24 22 19 17 16 15 14 13 12 11 10 9 8 8 8 7 7 7 6 6 5 6 6 6 6 6 7 7 8 9 8 8 8 10 12 14 16
53 51 49 47 45 43 42 39 37 34 32 30 27 25 23 20 18 16 14 12 11 10 9 9 9 8 8 7 6 6 5 5 5 5 5 4 4 4 4 5 4 5 5 5 6 7 7 7 8 9 11 13
51 50 48 45 42 39 36 33 30 27 24 21 19 17 15 14 12 11 10 9 8 7 7 6 6 6 6 6 6 5 5 5 5 5 5 4 4 4 4 4 4 4 4 4 5 5 6 6 6 7 8 10
49 45 42 38 34 31 27 24 21 19 16 14 13 11 10 9 8 8 7 7 7 6 6 6 6 5 5 6 6 6 6 5 5 5 5 5 4 4 4 4 4 4 4 4 4 4 5 5 6 6 7 8
41 37 34 30 27 24 20 18 15 13 11 10 9 8 7 7 7 7 6 6 6 6 6 5 5 5 5 5 5 5 5 5 5 5 5 5 4 4 4 4 4 4 4 4 4 4 4 4 5 5 5 7
35 32 29 25 22 19 16 14 12 10 9 8 8 8 7 7 7 6 6 6 6 5 6 5 5 5 4 4 4 4 4 5 5 4 4 4 4 4 4 4 3 4 4 4 4 4 4 4 3 5 4 5
34 30 26 22 19 16 14 12 11 10 10 9 9 8 7 7 6 6 6 6 6 6 6 6 6 5 5 5 4 4 4 4 5 4 5 4 4 4 4 4 3 3 3 3 4 4 4 5 3 4 4 4
34 29 24 20 17 15 13 12 12 11 11 10 10 9 8 7 7 7 7 7 6 6 6 6 6 5 5 5 4 5 4 4 4 4 5 4 4 4 4 4 4 3 4 3 4 4 4 5 4 4 4 4
33 28 23 19 16 14 13 13 13 12 11 10 10 9 9 8 8 7 7 7 6 6 6 6 6 5 5 5 5 4 4 4 4 4 4 4 4 5 4 4 4 3 4 4 3 4 4 4 4 4 4 4
30 25 21 17 16 15 14 14 13 11 11 11 11 10 9 9 8 7 7 6 6 6 6 5 5 6 5 5 5 5 5 4 4 4 4 4 4 4 4 4 4 4 4 4 4 4 4 4 4 4 4 4
26 22 20 18 17 16 15 14 13 12 12 12 11 10 10 9 7 7 7 6 6 6 6 6 5 6 6 6 6 5 6 5 5 5 4 4 4 4 5 4 5 5 4 4 4 4 4 4 4 4 4 4
23 22 20 19 17 16 14 14 14 13 13 13 12 10 9 9 8 8 7 7 7 7 6 6 6 6 6 6 6 6 6 6 5 5 5 5 4 4 5 5 5 5 5 4 4 4 4 4 4 4 4 4

ECMWFFLT2_250_rhum_168.txt.gz
RH
102 102 99 97 97 99 100 100 100 98 95 94 94 95 97 98 99 96 92 88 86 83 78 74 75 77 78 76 74 73 74 74 73 71 68 65 60 56 54 53 52 51 51 49 49 48 48 48 49 50 51 52
94 95 95 93 93 93 92 92 92 93 93 91 91 90 89 86 81 75 70 67 65 64 63 63 64 66 68 67 66 65 65 64 64 63 61 59 56 54 51 49 47 47 47 47 47 46 46 46 45 45 45 45
90 88 86 84 82 80 77 75 74 74 74 72 71 70 69 66 64 62 62 62 64 66 68 72 73 74 75 75 74 72 70 69 69 68 68 68 66 62 57 51 48 45 44 43 43 43 44 44 44 43 42 43
95 94 92 92 91 88 82 75 71 69 69 69 70 71 72 72 73 74 75 76 77 79 83 87 89 90 90 89 88 86 83 81 79 78 79 79 77 73 68 63 60 57 54 51 49 48 47 46 46 46 44 44
100 100 99 98 97 95 91 88 86 86 86 85 85 84 81 79 79 77 76 77 78 81 85 91 96 98 98 97 97 95 93 89 86 84 81 79 77 74 72 72 72 72 69 66 63 61 58 55 53 52 50 48
95 96 97 95 93 93 91 91 91 89 88 86 82 79 76 73 72 71 71 72 74 78 84 91 97 100 100 100 100 98 95 91 87 82 77 73 69 69 70 74 77 80 81 81 81 79 74 69 63 59 57 54
85 85 86 85 86 87 86 86 85 83 82 80 76 73 72 71 70 69 69 71 75 81 88 93 97 99 99 98 97 93 89 84 79 74 70 67 66 66 68 71 75 78 82 86 89 89 87 84 79 73 68 63
78 77 77 77 78 80 81 83 83 81 79 76 75 73 71 69 67 67 67 71 77 85 92 96 97 97 95 92 88 83 78 74 71 68 66 65 65 65 66 68 69 71 72 74 75 77 79 80 81 80 77 73
70 68 67 68 70 70 69 70 72 75 76 75 74 72 70 69 68 69 69 71 75 82 90 95 97 96 92 87 81 76 72 70 70 70 69 68 67 66 66 66 66 66 67 66 65 65 65 67 69 71 72 72
68 65 65 65 62 56 53 53 55 61 67 68 67 67 67 68 71 73 73 73 74 77 83 89 92 91 87 82 78 73 70 69 69 70 70 70 69 68 67 66 64 63 64 63 61 59 58 57 57 58 60 62
76 76 72 61 48 47 54 59 57 55 60 62 61 61 62 65 69 71 72 72 73 74 76 78 80 79 76 72 69 67 65 64 63 63 63 63 64 64 63 62 60 59 59 59 58 56 54 52 51 50 50 51
82 76 63 47 43 55 67 72 69 62 59 58 57 57 59 63 66 69 71 72 72 72 71 69 67 65 63 61 61 60 60 60 59 58 58 57 57 57 57 56 55 55 54 53 53 52 50 48 47 45 44 43
67 55 48 45 52 63 67 69 70 66 61 57 56 56 59 62 65 69 71 73 74 74 73 70 67 64 62 60 58 56 55 54 54 54 54 53 53 52 51 51 51 50 48 47 47 46 45 42 40 39 37 35
48 48 53 57 60 60 57 57 57 57 56 54 54 54 56 59 62 65 67 68 69 69 68 66 63 59 55 51 47 43 41 40 39 39 38 37 37 36 35 34 34 33 32 32 31 31 29 28 26 25 23 22
55 57 58 54 48 43 39 38 39 42 43 44 45 47 48 49 50 50 50 49 48 47 45 43 41 39 36 33 31 29 27 27 26 26 25 24 24 22 22 20 19 19 18 17 16 16 15 15 14 14 13 13
53 47 40 34 31 29 29 29 31 33 33 34 35 35 36 35 34 33 32 32 32 31 31 30 30 29 28 27 27 27 27 27 27 27 26 25 24 23 23 21 20 19 18 18 16 15 14 14 13 13 13 12
35 31 29 28 28 28 28 29 29 29 29 30 29 29 30 29 30 30 30 31 31 32 33 33 34 34 36 37 38 39 39 37 35 34 32 31 30 29 28 27 26 24 22 21 18 17 15 13 12 12 12 11
30 29 30 30 31 31 31 31 31 31 30 30 31 32 33 34 36 36 37 39 40 41 43 45 46 48 49 49 48 46 44 42 38 35 33 31 28 26 24 23 22 20 19 17 15 14 12 11 10 9 9 9
32 33 34 34 34 35 35 36 36 37 39 42 44 47 49 51 52 53 54 54 55 54 54 54 54 53 51 47 43 40 37 34 31 28 26 24 22 21 19 18 18 17 16 15 14 13 12 11 10 9 9 8
37 38 40 41 43 46 49 52 56 59 63 66 68 69 70 69 69 68 66 63 60 58 55 51 48 44 40 36 33 30 28 27 26 25 24 23 22 21 20 18 18 17 16 15 14 13 12 11 9 9 8 8
50 54 57 61 64 68 72 74 76 77 78 78 77 75 72 69 66 63 61 58 55 51 47 42 38 35 32 31 29 28 28 27 27 26 24 23 20 19 18 17 16 14 13 12 11 11 9 9 8 7 6 6
69 71 73 74 75 76 76 76 75 74 72 71 69 67 64 61 59 57 55 52 49 45 41 37 34 33 32 32 31 31 29 27 25 23 21 19 17 15 14 13 12 11 10 9 9 8 7 7 6 6 5 5
74 74 73 73 73 72 71 71 69 68 66 65 64 62 59 56 54 52 49 47 44 41 39 38 37 36 35 34 33 30 27 24 21 19 16 15 13 12 10 9 9 8 8 7 7 6 6 6 5 5 4 4
74 73 72 71 71 69 67 65 63 61 59 57 55 53 51 49 48 47 46 46 46 45 44 43 41 40 37 34 31 27 24 20 17 15 13 12 11 10 8 7 7 6 6 6 6 6 5 5 4 4 4 3
73 71 68 68 67 63 60 58 56 54 52 51 50 49 49 49 50 50 51 51 50 49 48 45 42 39 35 30 27 23 20 17 15 13 12 10 9 8 7 6 6 5 5 5 4 5 4 4 4 4 4 3
68 66 64 63 62 59 57 56 55 54 53 53 54 53 54 55 55 54 54 53 51 49 45 42 37 33 29 26 23 21 18 16 14 12 10 9 8 7 6 6 5 5 4 4 4 4 4 4 4 4 4 4
63 61 61 62 61 60 59 57 56 57 56 56 57 58 57 57 55 54 52 50 47 43 39 35 32 28 25 22 20 18 16 14 12 10 9 8 7 6 6 5 5 5 4 4 4 4 4 4 4 4 4 4
64 62 63 64 63 62 61 59 58 60 60 58 58 59 57 55 53 51 48 44 40 37 34 30 26 23 20 18 16 14 13 12 10 9 8 7 7 6 6 6 5 5 5 4 4 4 4 4 4 5 5 4
66 65 64 64 64 63 63 62 63 64 62 58 59 60 58 54 51 47 44 40 35 32 27 23 20 18 16 15 13 12 11 11 10 9 8 7 7 6 6 6 5 5 5 5 5 4 4 4 4 5 5 5
66 65 64 63 64 65 66 68 70 68 63 61 60 60 58 53 48 44 40 35 29 25 21 19 17 15 14 13 12 12 11 10 10 9 8 7 7 7 6 6 6 6 6 5 5 5 4 5 4 4 5 5
64 63 63 63 64 67 70 73 74 70 65 63 60 58 54 49 43 37 33 28 24 21 19 17 16 15 14 14 13 12 11 10 9 8 7 7 7 7 7 7 7 7 6 6 5 5 5 5 5 4 5 5

ECMWFFLT2_250_rhum_174.txt.gz
RH
83 71 60 55 56 67 79 75 70 75 79 74 69 73 78 78 83 91 93 97 100 98 95 88 82 85 91 88 83 81 76 71 68 65 62 60 60 61 63 65 65 65 61 56 53 53 51 49 47 45 42 40
76 70 68 68 67 65 69 71 74 81 85 84 85 88 88 85 88 92 93 95 93 86 84 87 90 95 100 99 94 90 88 86 85 85 82 78 76 74 72 70 66 63 60 58 57 57 55 53 51 49 47 45
91 94 95 94 91 89 90 93 94 95 96 97 97 96 94 95 99 96 90 92 91 88 89 93 94 95 96 89 79 76 79 81 81 81 79 76 73 69 65 62 60 59 59 60 61 61 60 58 55 52 50 48
93 93 97 100 101 100 100 100 99 97 97 98 99 99 98 102 106 102 99 102 98 90 86 86 88 88 84 75 69 71 73 75 75 76 75 73 72 68 65 63 62 61 60 60 60 60 60 58 55 51 48 46
93 84 80 86 95 100 102 102 101 101 99 100 104 104 101 101 101 98 97 97 92 84 77 75 76 77 77 77 80 83 85 86 85 85 83 80 78 74 70 67 65 64 62 60 58 57 56 54 51 48 45 43
100 93 83 76 79 89 95 95 93 91 86 86 94 98 97 94 92 91 90 88 84 81 76 74 76 80 85 89 93 94 94 93 89 86 84 80 77 74 72 71 71 70 67 64 61 59 56 55 53 51 48 45
100 102 100 88 80 81 82 80 80 81 80 81 86 90 90 87 84 83 81 79 79 81 83 85 87 90 94 96 97 95 92 87 83 78 75 72 71 70 71 73 74 72 69 66 64 62 60 58 56 55 53 51
100 105 109 104 96 92 91 90 90 91 93 94 90 86 85 84 83 84 84 85 88 91 93 92 92 93 95 96 93 87 81 75 71 68 67 67 67 69 71 72 73 71 67 65 62 60 58 56 54 52 51 49
100 102 105 106 102 99 99 98 97 94 93 92 90 92 93 93 93 93 94 95 96 97 96 94 93 93 91 87 81 74 69 66 65 64 64 64 66 67 68 68 67 66 64 61 59 56 54 51 48 45 42 40
100 100 101 104 102 100 100 99 99 98 96 97 99 100 100 99 99 98 97 98 98 97 95 92 88 84 79 74 69 66 65 64 62 61 60 60 61 61 62 62 62 61 60 57 54 51 47 43 39 34 30 27
99 99 99 100 100 100 101 100 100 101 100 100 101 101 101 100 100 99 98 97 95 91 86 81 76 72 68 65 64 63 62 60 58 56 56 56 56 56 56 56 55 53 51 49 45 40 36 33 31 27 24 24
95 96 96 95 95 96 96 97 98 99 100 101 102 102 102 100 98 95 93 90 85 80 73 68 66 64 63 62 61 60 59 58 57 56 56 55 55 54 51 48 44 40 38 34 32 31 33 34 33 30 29 29
88 89 89 87 87 89 90 91 92 93 95 96 96 93 91 88 85 82 80 77 72 67 64 62 62 62 62 62 61 62 63 63 63 62 60 57 51 45 39 35 33 32 31 32 34 37 39 37 33 30 27 25
84 83 82 80 79 79 80 81 81 81 81 81 79 77 75 72 71 70 69 67 64 63 63 64 64 65 65 65 67 67 68 66 64 59 52 43 36 33 32 34 36 37 38 39 38 37 33 29 25 23 21 20
87 82 78 76 75 73 73 73 73 73 72 72 72 70 69 68 67 67 67 67 67 69 70 71 71 71 71 70 70 68 65 58 49 41 34 31 32 34 37 38 38 36 34 32 29 26 24 22 22 21 20 20
88 84 79 76 74 73 72 72 72 72 72 72 72 73 73 74 75 76 77 77 77 77 76 76 74 72 71 68 64 56 48 39 32 30 29 32 33 34 33 31 30 27 26 24 23 23 22 22 21 20 20 19
92 89 85 82 80 80 79 78 77 78 79 81 83 86 87 88 88 87 86 84 82 79 75 71 68 64 59 52 45 38 32 30 29 30 30 30 29 29 28 26 26 24 24 23 23 23 22 22 21 20 20 19
97 95 94 93 93 94 92 90 91 93 95 97 98 99 97 94 90 86 83 79 73 68 62 57 52 46 41 36 33 31 31 30 30 30 29 29 29 28 28 27 27 26 26 25 25 25 24 24 24 23 23 23
100 99 99 99 98 99 99 99 100 101 100 98 95 91 85 80 74 69 64 58 52 48 44 40 37 35 33 32 32 32 32 32 32 31 32 32 33 34 33 33 33 32 32 31 30 29 28 28 28 27 27 26
82 82 82 81 81 82 84 84 82 78 75 72 68 63 59 54 50 46 43 40 37 36 35 34 34 34 34 34 35 35 35 37 38 39 40 41 42 43 43 42 42 41 39 38 37 35 34 33 32 32 31 30
49 50 50 51 52 54 54 53 51 48 47 45 43 41 39 38 37 36 36 35 35 35 36 37 38 39 40 42 43 45 46 49 51 52 53 52 52 52 51 50 48 47 45 43 42 40 38 36 35 34 33 32
35 36 36 36 37 37 36 36 35 35 36 36 36 36 36 36 37 37 37 38 40 42 44 46 49 51 54 57 59 61 62 63 63 63 62 61 59 57 55 53 51 49 47 45 44 42 40 38 36 35 33 31
35 35 35 34 34 34 34 34 35 36 37 38 39 38 39 40 41 43 45 48 52 56 61 64 67 69 70 72 72 73 72 71 70 68 66 63 61 58 56 54 52 50 47 46 44 42 40 38 36 33 31 29
36 36 36 36 36 37 37 37 39 41 43 44 45 47 50 53 55 58 63 69 74 78 81 82 82 81 80 79 79 77 76 73 71 68 65 62 59 57 54 52 50 48 46 44 42 40 37 34 32 30 28 26
38 39 40 42 42 43 43 45 51 56 59 62 65 69 73 76 77 82 87 92 93 92 91 88 86 84 82 81 79 76 74 71 69 65 62 58 55 52 49 48 46 44 43 40 38 35 32 30 28 26 25 23
50 53 55 55 56 58 62 67 75 82 85 87 90 92 92 92 94 97 98 98 96 94 90 86 83 82 80 78 76 74 71 67 63 59 55 52 49 47 45 43 41 40 38 36 33 30 29 27 26 25 23 21
68 70 70 71 74 79 84 89 95 99 101 101 98 96 94 96 97 97 96 95 94 91 87 83 81 80 77 75 72 68 64 59 55 52 50 48 46 43 41 38 37 36 35 34 31 29 28 26 25 24 22 21
75 77 79 83 87 90 93 96 98 99 101 100 94 91 92 94 94 93 93 92 90 87 83 81 78 75 72 69 65 60 57 54 51 49 47 44 42 39 37 36 35 35 35 33 31 29 27 25 23 22 20 19
77 80 84 89 91 92 92 94 95 97 99 96 91 89 90 90 89 90 90 88 85 82 79 75 71 68 64 61 58 56 54 51 48 46 44 41 39 37 35 34 34 35 34 33 30 27 24 21 20 19 17 15
85 87 90 94 96 96 95 96 98 99 98 94 91 91 90 88 87 86 85 82 79 76 72 68 65 60 58 56 54 53 51 49 47 44 42 40 39 37 34 33 33 33 32 30 27 23 20 18 16 15 14 13
94 95 97 99 99 99 99 100 102 100 97 94 92 91 89 86 83 80 78 76 72 69 65 62 59 56 54 53 51 50 49 48 46 44 42 40 38 36 33 31 30 29 27 25 23 20 18 16 14 13 12 12

ECMWFFLT2_250_rhum_180.txt.gz
RH
91 90 89 88 86 86 89 90 91 92 93 92 89 83 78 80 84 86 91 94 94 89 80 73 74 79 85 88 93 96 83 71 70 70 76 82 77 68 58 50 46 43 38 35 33 30 31 33 35 36 35 32
100 100 98 98 99 98 97 100 103 102 100 99 99 97 93 94 97 98 97 98 99 100 94 83 75 75 80 82 82 83 77 77 79 75 75 76 70 60 55 54 50 46 44 41 39 39 40 40 41 39 38 36
85 91 93 93 98 100 92 89 95 100 103 104 105 105 104 101 101 101 99 101 103 101 101 95 86 80 78 75 73 71 72 81 84 82 84 83 79 71 67 69 66 59 53 50 49 49 48 48 48 46 45 43
46 51 59 64 71 77 72 66 67 73 79 84 88 93 99 101 104 104 98 97 99 98 103 102 94 90 87 83 81 80 83 88 88 87 87 87 87 81 74 77 82 81 74 70 68 65 62 60 59 60 59 57
28 28 33 39 45 51 55 55 54 51 49 49 51 55 61 68 77 86 87 81 81 84 90 93 90 90 92 93 96 97 98 98 96 96 95 95 96 90 85 82 85 93 95 91 88 88 87 84 79 77 76 74
26 28 31 36 41 45 47 47 44 39 34 33 35 39 42 46 49 56 63 65 70 75 78 81 82 85 90 94 98 101 103 104 102 100 96 96 99 98 98 97 95 98 101 99 99 99 100 100 98 97 97 96
21 24 26 29 33 36 37 35 32 28 26 26 29 33 38 43 48 52 58 62 66 70 71 74 76 80 84 85 90 96 97 98 95 91 89 90 91 90 88 89 92 94 96 99 101 99 94 86 82 84 88 91
18 18 19 20 21 22 23 22 21 20 19 20 21 25 30 35 40 45 51 55 58 59 61 64 67 70 73 76 87 97 95 90 85 80 80 80 78 75 72 70 70 72 75 80 82 82 75 64 58 58 61 64
18 17 17 17 17 17 17 17 17 17 16 16 17 18 20 22 25 28 31 34 38 41 44 48 52 57 62 69 81 90 91 89 89 88 87 86 84 82 79 75 72 70 67 66 65 63 61 57 55 55 56 57
16 16 16 16 16 16 16 16 16 16 16 16 16 15 15 16 17 19 21 24 28 32 38 44 50 55 61 69 77 85 89 91 94 97 98 98 98 98 97 94 92 90 86 81 76 71 68 65 64 63 64 64
17 16 16 16 16 16 15 15 15 15 15 15 15 15 16 18 20 23 26 29 34 39 44 49 54 58 64 71 79 87 93 96 99 100 100 101 101 101 102 101 100 100 99 97 94 91 88 86 85 83 81 80
17 16 16 16 15 15 15 15 15 14 14 14 15 16 19 23 26 30 33 36 40 44 47 49 52 56 62 69 76 83 88 91 93 94 95 97 98 97 98 99 99 100 100 99 99 98 96 94 92 90 88 87
17 16 15 15 15 15 15 15 15 15 15 16 17 20 23 27 30 33 36 38 42 44 46 48 52 57 61 66 71 75 78 80 81 83 84 86 87 88 89 90 91 93 93 92 92 92 90 88 86 84 83 81
16 16 16 15 15 15 15 15 16 16 17 18 20 23 24 25 28 31 35 39 44 48 52 55 60 65 70 73 76 78 80 81 81 81 80 79 79 78 78 77 77 77 77 78 79 81 81 81 80 80 79 77
16 16 16 16 16 16 16 16 16 17 16 17 18 19 20 21 23 25 29 34 38 44 49 54 59 65 72 76 80 82 84 84 85 85 84 82 81 79 79 77 75 73 72 71 72 73 73 73 73 73 73 73
17 17 17 16 16 17 17 17 17 17 16 17 17 17 17 17 18 19 21 24 28 32 36 39 44 48 54 59 64 69 73 76 79 81 82 83 83 83 83 82 81 79 76 74 72 71 70 69 69 69 70 70
17 17 17 17 17 18 17 18 17 17 17 17 17 17 18 18 20 21 23 26 28 28 29 30 32 34 36 38 41 46 51 58 64 69 73 76 78 80 81 82 82 81 80 78 76 74 73 71 70 69 69 69
18 18 18 18 19 19 20 20 19 19 20 20 21 21 22 23 26 28 31 31 29 27 26 26 26 26 27 28 29 31 35 41 48 55 61 65 68 71 72 74 75 77 79 79 78 77 75 73 70 68 67 66
19 20 20 21 21 22 22 22 22 23 24 25 26 27 27 28 29 30 30 28 26 25 24 24 24 24 24 24 25 27 29 33 37 42 47 50 53 56 58 62 66 69 73 74 74 73 71 69 67 66 65 63
20 20 21 22 22 23 24 24 24 26 27 28 29 29 30 29 28 27 26 24 24 23 23 23 23 23 24 24 24 25 25 26 28 29 32 33 35 38 41 45 49 51 54 56 57 58 58 57 55 55 54 51
21 22 22 23 22 24 25 25 25 26 27 28 28 28 28 27 25 24 23 23 23 23 24 24 24 24 24 24 23 23 23 23 23 23 23 24 25 27 29 31 32 33 34 34 35 35 35 36 35 35 34 32
22 23 24 24 24 25 26 26 26 26 26 26 26 26 25 24 23 23 23 23 24 24 24 24 24 24 24 23 23 22 22 22 22 22 23 24 24 25 26 26 26 26 26 25 25 25 25 25 25 25 25 25
24 25 26 26 26 26 27 26 25 24 25 24 24 24 23 23 23 23 24 24 25 25 26 26 25 25 23 23 23 22 22 23 23 24 25 27 27 27 27 27 27 26 25 25 25 25 25 25 25 25 25 26
25 25 26 26 26 26 26 24 24 23 23 23 23 23 23 23 24 24 25 25 26 26 25 25 25 24 23 23 23 23 24 25 26 27 28 29 28 28 27 27 26 26 25 26 25 25 25 25 26 26 26 27
26 26 26 26 26 25 25 24 23 23 23 24 25 25 25 26 27 26 26 26 26 26 26 25 25 24 24 24 25 26 27 29 29 30 30 29 29 28 27 27 27 27 26 26 26 25 26 26 27 27 28 29
28 28 27 26 25 24 24 24 23 23 24 26 28 29 29 30 31 29 29 29 28 29 28 28 28 27 28 28 28 29 30 31 31 31 31 30 30 30 30 31 31 30 29 29 29 29 29 30 30 30 30 31
31 31 30 29 28 28 28 28 27 27 28 30 32 33 33 33 33 32 32 32 32 33 33 32 32 31 31 31 31 33 34 35 36 36 35 34 35 36 37 37 36 34 33 35 34 34 35 34 34 35 37 37
38 37 37 36 35 35 35 35 35 34 34 34 35 35 35 35 35 35 34 35 36 36 36 36 36 36 36 37 39 41 44 45 45 45 44 43 44 46 47 46 44 41 40 41 41 40 42 41 42 46 48 49
45 45 45 43 41 40 41 41 40 39 38 36 37 37 37 38 38 38 39 40 42 43 43 43 42 42 44 47 49 51 53 55 55 55 55 56 56 56 56 55 52 50 50 51 48 47 48 48 49 50 48 50
50 50 50 47 45 44 44 44 43 42 41 40 40 40 41 42 42 44 47 49 52 54 53 53 53 54 56 58 60 61 62 63 64 65 65 64 63 62 61 59 57 57 57 56 54 52 52 51 50 49 46 47
54 53 53 52 51 49 48 47 46 44 43 43 44 45 46 47 48 52 57 62 65 67 67 66 66 66 65 65 66 66 67 67 67 67 67 65 63 62 60 58 59 59 57 58 60 60 59 57 55 53 49 47